Location: ?p Thanh B�nh
(16.5833°N, 107.5333°E)
Time: 05:28:10
(UTC+00:00)

GPS 2-15 Rocket1 - Pass Details

Date: 29 October 2020
Orbit: 624 x 675 km, 19.8° (Epoch: 29 November)

Event Time Altitude Azimuth Distance (km) Brightness Sun altitude
Exits shadow 21:27:40 35° 242° (WSW) 1,077 3.8 -19.4°
Maximum altitude 21:29:43 73° 166° (SSE) 696 3.3 -18.9°
Drops below altitude 10° 21:34:39 10° 82° (E) 2,090 6.9 -17.7°
Sets 21:37:04 0° 80° (E) 3,005 7.9 -17.2°
